Regional Weather Roundup
Issued by NWS Newport/Morehead, NC

Current Version | Previous Version | Graphics & Text | Print | Product List | Glossary Off
Versions: 1 2 3 4 5 6 7 8 9 10 11 12 13 14 15 16 17 18 19 20 21 22 23 24 25 26 27 28 29 30 31 32 33 34 35 36 37 38 39 40 41 42 43 44 45 46 47 48 49 50

000
ASUS42 KMHX 281213
RWRMHX
WEATHER ROUNDUP FOR EASTERN NORTH CAROLINA
NATIONAL WEATHER SERVICE NEWPORT/MOREHEAD CITY NC
800 AM EDT WED JUN 28 2017

NOTE: "FAIR" INDICATES FEW OR NO CLOUDS BELOW 12,000 FEET
WITH NO SIGNIFICANT WEATHER AND/OR OBSTRUCTIONS TO VISIBILITY

NCZ015>017-031-032-045>047-102-103-281300-
NORTH COAST

CITY           SKY/WX    TMP DP  RH WIND       PRES   REMARKS
EDENTON        SUNNY     67  60  77 CALM      30.17R
ELIZABETH CITY SUNNY     70  63  78 N10       30.16R
KITTY HAWK     SUNNY     72  65  79 N5        30.13R
MANTEO         SUNNY     73  65  77 NE12G17   30.14R

$$

NCZ045>047-081-094-103-104-281300-
CENTRAL COAST

CITY           SKY/WX    TMP DP  RH WIND       PRES   REMARKS
FRISCO         NOT AVBL

$$

NCZ095-097-098-100-101-281300-
SOUTHERN COAST

CITY           SKY/WX    TMP DP  RH WIND       PRES   REMARKS
BEAUFORT       SUNNY     75  63  66 N9        30.14R
CEDAR ISLAND   NOT AVBL
JACKSONVILLE   SUNNY     71  61  70 N6        30.15R
PINEY ISLAND   SUNNY    N/A N/A N/A N12       30.14R
WILMINGTON     MOSUNNY   72  60  66 NE6       30.14R


$$

NCZ011>013-027>030-043-044-078>080-089-090>093-098-281300-
COASTAL PLAIN

CITY           SKY/WX    TMP DP  RH WIND       PRES   REMARKS
AHOSKIE          N/A     64  56  78 N5        30.17S
CLINTON        SUNNY     67  60  77 NE3       30.17R
ELIZABETHTOWN  NOT AVBL
GOLDSBORO      SUNNY     67  59  75 NE9       30.15R
GREENVILLE     SUNNY     64  59  82 N6        30.17S
HAVELOCK       MOSUNNY   74  59  59 N8        30.16R
KENANSVILLE    SUNNY     64  59  82 N3        30.17R
KINSTON        SUNNY     66  59  77 NE5       30.17R
NEW BERN       MOSUNNY   70  61  73 CALM      30.17R
RICHLANDS      SUNNY     69  61  75 N3        30.16R
ROCKY MOUNT    SUNNY     66  57  72 NE7       30.18R
WASHINGTON       N/A    N/A N/A N/A N6        30.16R
WHITEVILLE     SUNNY     67  61  79 NE3       30.15R

$$

AMZ130-135-150-152-154-156-158-170-250-252-270-ANZ085-086-088-633-658-670-281300-
MARINE OBSERVATIONS

STATION/POSITION TIME  TEMP    WIND        PRES    WAVE   SWELL
                       AIR SEA DIR/SP/G            HT/PER HT/PER
                 (UTC) (F)     (DEG/KT/KT) (MB)    (FT/S) (FT/S)
CHESAPEAKE LIGHT NOT AVBL
64 E VA BEACH    1150   71 74   20/ 16/ 17 1020.7    2/ 3
DUCK             1148   72 74   30/ 18/ 21 1020.2
2 E DUCK         NOT AVBL
OREGON INLET     1148          360/  7/ 11   N/A
13E OREGON INLT  1148      74                N/A     1/ 7   2/ 7
HATTERAS CG      1148   77 78   10/ 12/ 15 1019.8
DIAMOND BUOY     1150   76 79  360/ 12/ 16 1019.6    2/ 9   2/ 9
CAPE LOOKOUT     1200   76      10/ 10/ 13 1020.2
BEAUFORT LAB     1148   74 78   20/  7/ 10 1019.8
30 SE NEW RVR IN 1108   77 80   40/ 14/ 17 1019.7
30 SE NEW RVR IN 1143      80                N/A     3/ 4
27 SE WRIGHTSVLE 1108   78 80   60/ 16/ 19 1019.0
5 SE WRIGHTSVLE  1108   76 79   40/ 12/ 19 1019.9
225 S CAPE HAT   1150   79 80  360/  8/ 10 1018.6    3/ 7   3/ 7
41 SE CHARLESTON 1150   79 81   40/ 12/ 14 1018.9    2/ 8   2/ 8

$$




USA.gov is the U.S. government's official web portal to all federal, state and local government web resources and services.